CZ-6A DEB, 61479

Orbit data source: Space-Track

CZ-6A DEB, 61479 is space debris in LEO originally from a launch on Tue, 06 Aug 2024 UTC launched from the Taiyaun Space Center, China (TSC). Debris objects in space refer to the collection of defunct objects orbiting the Earth. Examples of debris include non-operational satellites, rocket bodies, and fragments generated from explosions, collisions, or faulty payload assembly.

Loading next visibility...
Identifier
61479, 2024-140AAM
Orbit
LEO
Country
Flag of CNCN / PRC
Related business
Manufacturer
SAST
Mission
Spacecraft
Bus & Motor
Unknown
Mass
Unknown
Launch date (UTC)
2024-08-06 (1 year ago)
Launch vehicle
Unknown
Launch site
Taiyaun Space Center, China (TSC)
Object type
Payload
Rocket body
Debris
Shape & HBR
Unknown shape, 0.1 m
Radar Cross Section
Small (<0.1 m²)

Expand to show TLE details & history
Last TLE update: 10 hours ago

TLE from 10 hours ago
0 CZ-6A DEB
1 61479U 24140AAM 25352.84786659  .00001234  00000-0  69247-3 0  9999
2 61479  89.0640 300.1963 0165305  52.4674 309.1398 14.03325231 67916
Epoch: 2025-12-18T20:20Z
TLE epoch observation values (Epoch: 2025-12-18T20:20:55.673Z)
Latitude
0.00003°
Longitude
-92.73316°
Altitude
810.772 km
Speed
7.486 km/s
True Right ascension
20h 00m 47s
True Declination
0° 00' 00"
Sunlit
Object was in daylight at epoch
Visualization orbit readout
Latitude
Unknown
Longitude
Unknown
Altitude
Unknown
Speed
Unknown
Apparent Right ascension
Unknown
Apparent Declination
Unknown
Sunlit
N/A
Visualization observer readout
Local Sidereal Time
05:00:26
Azimuth
Unknown
Elevation
Unknown
Doppler factor
Unknown
Orbital elements
Apogee altitude
999.245 km
Perigee altitude
759.308 km
Semi-major axis
7,257.414 km
Eccentricity
0.01653
Inclination
89.064°
RAAN
300.1963°
Arg. of periapsis
52.4674°
True anomaly
307.65136°
Mean anomaly
309.1398°
Eccentric anomaly
308.39752°
Mean motion
3.51051 °/min
Orbital period
102.55 mins
BSTAR
0.00069247
Loading maneuver chart data...
Computing Atmospheric mass density...

Documentation

Showing up to 5 results
|